Location: Gull Harbor
(47.1000°N, 122.9000°W)
Time: 13:46:59
(UTC-07:00)

BlueWalker 3 - Pass Details

Date: 31 January 2023
Orbit: 497 x 514 km, 53.2° (Epoch: 01 April)

Event Time Altitude Azimuth Distance (km) Brightness Sun altitude
Rises 19:11:58 0° 277° (W) 2,603 7.1 -20.4°
Reaches altitude 10° 19:14:18 10° 287° (WNW) 1,723 5.6 -20.8°
Maximum altitude 19:17:53 34° 354° (N) 863 3.1 -21.4°
Enters shadow 19:18:11 33° 4° (N) 873 3.0 -21.5°
